Flag for U.S.A. Weather past 2 weeks in Tempe, Arizona, U.S.A.

Now
56 °F

Scattered clouds.


Feels Like: 55 °F
Forecast: 47 / 62 °F
Wind: 5 mph from Southeast

Location: Phoenix Sky Harbor International Airport

Current Time: Mar 3, 2015 at 10:13:08 AM

Latest Report: Mar 3, 2015 at 9:51 AM


Visibility: 10 mi

Pressure: 29.91 "Hg

Humidity: 75%

Dew point: 48 °F

Location of TempeLocation

Historic Weather in Tempe — Graph

°F

Tempe temperature yesterday

Maximum temperature yesterday: 65 °F (at 12:51 AM)
Minimum temperature yesterday: 52 °F (at 2:51 PM)
Average temperature yesterday: 57 °F

Past Weeks' High & Low Weather Summary

 TemperatureHumidityPressure
High79 °F (Feb 19, 3:51 PM)100% (Mar 3, 7:51 AM)30.16 "Hg (Mar 3, 7:51 AM)
Low48 °F (Feb 25, 6:51 AM)8% (Feb 17, 3:51 PM)29.57 "Hg (Feb 27, 4:51 PM)
Average64 °F43%29.89 "Hg
* Reported Feb 16 8:51 AM — Mar 3 8:51 AM, Tempe, Weather by CustomWeather, © 2015

Note: Actual official high and low records may vary slightly from our data, if they occured in-between our weather recording intervals... More about our weather records

Advertising

Tempe weather history for previous 24 hours

 ConditionsComfort  
Time TempWeatherWind HumidityBarometerVisibility
8:51 AM
Tue, Mar 3
51 °FFog.No wind92%29.92 "Hg4 mi
7:51 AM48 °FFog.5 mph100%29.91 "Hg2 mi
7:01 AM48 °FFog.3 mph96%29.91 "Hg6 mi
5:51 AM50 °FPassing clouds.No wind89%29.89 "Hg10 mi
4:51 AM51 °FPassing clouds.No wind86%29.89 "Hg10 mi
3:51 AM52 °FPartly cloudy.6 mph86%29.89 "Hg10 mi
2:51 AM52 °FMostly cloudy.5 mph83%29.91 "Hg10 mi
1:51 AM52 °FPassing clouds.9 mph89%29.93 "Hg10 mi
12:51 AM52 °FMostly cloudy.6 mph83%29.94 "Hg10 mi
11:51 PM
Mon, Mar 2
52 °FOvercast.3 mph89%29.96 "Hg10 mi
10:51 PM52 °FMostly cloudy.3 mph86%29.98 "Hg10 mi
9:51 PM52 °FPassing clouds.5 mph86%29.98 "Hg10 mi
8:51 PM52 °FPartly cloudy.7 mph86%29.97 "Hg10 mi
7:51 PM53 °FPassing clouds.7 mph83%29.95 "Hg10 mi
6:51 PM54 °FPartly cloudy.8 mph80%29.93 "Hg10 mi
5:51 PM55 °FPartly sunny.9 mph80%29.93 "Hg10 mi
4:51 PM55 °FMostly cloudy.3 mph74%29.92 "Hg10 mi
3:51 PM54 °FCloudy.No wind80%29.90 "Hg10 mi
2:51 PM52 °FLight rain. Mostly cloudy.No wind83%29.89 "Hg7 mi
1:51 PM53 °FLight rain. Cloudy.8 mph86%29.88 "Hg10 mi
12:51 PM53 °FLight rain. Cloudy.12 mph83%29.90 "Hg7 mi
11:51 AM53 °FRain. Fog.14 mph86%29.91 "Hg4 mi
10:51 AM53 °FLight rain. Mostly cloudy.13 mph86%29.91 "Hg10 mi
Weather by CustomWeather, © 2015

See weather overviewHow to use our weather pages